Погода в Томторе

Россия / Республика Саха (Якутия)     62°39′20″N   132°55′19″E
темп.,
°C
ветер,
м/с
пор.,
м/с
влажн.,
%
обл.,
%
осадки,
мм/ч
давл.,
гПа
погр.,
м
27 февраля, сб
сб2700:00−34в129918 0.0 103519
03:00−35в22998 0.0 103319
06:00−36в22990 0.0 103219
09:00−33в23980 0.0 1031116
12:00−26в238833 0.0 1029350
15:00−25всв249156 0.0 1026358
18:00−30всв239721 0.0 102433
21:00−31св229544 0.0 102220
28 февраля, вс
вс2800:00−31св239298 0.0 101961
03:00−29св228899 0.0 101639
06:00−30ссз1187100 0.0 101619
09:00−27ссз1187100 0.0 101672
12:00−22в2381100 0.0 1017367
15:00−20ююз128394 0.0 1018568
18:00−24ююз1297100 0.0 102122
21:00−25з2598100 0.1 1023218
1 марта, пн
пн100:00−28з2697100 0.1 1023219
03:00−29зюз2497100 0.1 1024134
06:00−29юз2397100 0.0 1025120
09:00−28юз1396100 0.0 1025238
12:00−26юз238499 0.0 1025789
15:00−25зюз238699 0.1 1025805
18:00−28зюз1296100 0.1 102619
21:00−30зюз119896 0.1 102619
2 марта, вт
вт200:00−31зюз119891 0.0 102619
03:00−32зюз129895 0.0 102619
06:00−34зюз129870 0.0 102619
09:00−32зюз129766 0.0 102683
12:00−27з238791 0.0 1025463
15:00−27з229096 0.1 1025597
18:00−28зюз1299100 0.2 102619
21:00−29з1298100 0.3 102628
3 марта, ср
ср300:00−29з1198100 0.1 102619
03:00−29зсз1198100 0.1 102519
06:00−30зсз1198100 0.1 102419
09:00−29з0196100 0.1 1023133
12:00−26зсз1188100 0.1 1022496
15:00−26зсз1284100 0.1 1020678
18:00−29з1296100 0.0 101919
21:00−31з2299100 0.1 101830